| time (UTC) | temp F | wind direction | speed knots | gust knots | rain 1hr in | rain 24hr in | rain mn in | humidity % | barometer mb |
| 20260508154502 | 60 | 251 | 2.6 | 6.1 | 0.00 | 0.00 | 0.00 | 56 | 1014.4 |
| 20260508153642 | 59 | 245 | 1.7 | 6.1 | 0.00 | 0.00 | 0.00 | 56 | 1014.4 |
| 20260508152821 | 59 | 252 | 1.7 | 6.1 | 0.00 | 0.00 | 0.00 | 54 | 1014.3 |
| 20260508152001 | 58 | 256 | 2.6 | 11.3 | 0.00 | 0.00 | 0.00 | 56 | 1014.3 |
| 20260508151141 | 58 | 232 | 2.6 | 9.6 | 0.00 | 0.00 | 0.00 | 59 | 1014.6 |
| 20260508150321 | 57 | 224 | 1.7 | 9.6 | 0.00 | 0.00 | 0.00 | 62 | 1014.7 |
| 20260508145501 | 56 | 224 | 1.7 | 7.0 | 0.00 | 0.00 | 0.00 | 60 | 1014.8 |
| 20260508144641 | 56 | 211 | 1.7 | 5.2 | 0.00 | 0.00 | 0.00 | 66 | 1014.8 |
| 20260508143820 | 55 | 220 | 0.9 | 4.3 | 0.00 | 0.00 | 0.00 | 62 | 1014.8 |
| 20260508143000 | 54 | 210 | 0.9 | 5.2 | 0.00 | 0.00 | 0.00 | 65 | 1014.8 |
| 20260508142140 | 54 | 234 | 1.7 | 8.7 | 0.00 | 0.00 | 0.00 | 63 | 1014.6 |
| 20260508141320 | 54 | 210 | 0.9 | 8.7 | 0.00 | 0.00 | 0.00 | 62 | 1014.8 |
| 20260508140500 | 54 | 235 | 0.9 | 6.1 | 0.00 | 0.00 | 0.00 | 61 | 1014.8 |
| 20260508135640 | 54 | 248 | 1.7 | 6.1 | 0.00 | 0.00 | 0.00 | 60 | 1014.6 |
| 20260508134819 | 54 | 209 | 0.9 | 6.1 | 0.00 | 0.00 | 0.00 | 63 | 1014.5 |
| 20260508133959 | 54 | 218 | 1.7 | 11.3 | 0.00 | 0.00 | 0.00 | 63 | 1014.9 |
| 20260508133139 | 54 | 234 | 1.7 | 7.0 | 0.00 | 0.00 | 0.00 | 63 | 1014.7 |
| 20260508132319 | 54 | 242 | 1.7 | 7.8 | 0.00 | 0.00 | 0.00 | 61 | 1014.7 |
| 20260508131458 | 54 | 242 | 2.6 | 9.6 | 0.00 | 0.00 | 0.00 | 61 | 1014.6 |
| 20260508130638 | 55 | 234 | 1.7 | 6.1 | 0.00 | 0.00 | 0.00 | 62 | 1014.7 |
| 20260508125818 | 54 | 225 | 2.6 | 9.6 | 0.00 | 0.00 | 0.00 | 61 | 1014.7 |
| 20260508124958 | 53 | 230 | 1.7 | 8.7 | 0.00 | 0.00 | 0.00 | 63 | 1014.6 |
| 20260508124137 | 53 | 242 | 1.7 | 6.1 | 0.00 | 0.00 | 0.00 | 63 | 1014.5 |
| 20260508123317 | 52 | 166 | 1.7 | 7.0 | 0.00 | 0.00 | 0.00 | 67 | 1014.5 |
| 20260508122457 | 51 | 204 | 1.7 | 5.2 | 0.00 | 0.00 | 0.00 | 66 | 1014.7 |
| 20260508121637 | 51 | 211 | 0.9 | 4.3 | 0.00 | 0.00 | 0.00 | 68 | 1014.7 |
| 20260508120816 | 51 | 141 | 0.9 | 5.2 | 0.00 | 0.00 | 0.00 | 69 | 1014.5 |
| 20260508115956 | 50 | 192 | 1.7 | 7.8 | 0.00 | 0.00 | 0.00 | 71 | 1014.5 |
| 20260508115136 | 50 | 179 | 1.7 | 7.8 | 0.00 | 0.00 | 0.00 | 70 | 1014.7 |
| 20260508114316 | 50 | 121 | 1.7 | 5.2 | 0.00 | 0.00 | 0.00 | 72 | 1014.3 |
| 20260508113456 | 48 | 118 | 0.9 | 3.5 | 0.00 | 0.00 | 0.00 | 76 | 1014.4 |
| 20260508112635 | 46 | 110 | 1.7 | 3.5 | 0.00 | 0.00 | 0.00 | 78 | 1014.1 |
| 20260508111815 | 45 | 111 | 1.7 | 4.3 | 0.00 | 0.00 | 0.00 | 83 | 1014.2 |
| 20260508110955 | 44 | 110 | 1.7 | 3.5 | 0.00 | 0.00 | 0.00 | 83 | 1014.4 |
| 20260508110135 | 43 | 104 | 0.9 | 3.5 | 0.00 | 0.00 | 0.00 | 84 | 1014.5 |
| 20260508105314 | 43 | 94 | 0.9 | 3.5 | 0.00 | 0.00 | 0.00 | 85 | 1014.4 |
| 20260508104454 | 42 | 91 | 0.9 | 2.6 | 0.00 | 0.00 | 0.00 | 86 | 1014.0 |
| 20260508103634 | 42 | 102 | 1.7 | 3.5 | 0.00 | 0.00 | 0.00 | 87 | 1014.1 |
| 20260508102814 | 41 | 93 | 0.9 | 3.5 | 0.00 | 0.00 | 0.00 | 88 | 1013.9 |
| 20260508101954 | 41 | 91 | 1.7 | 3.5 | 0.00 | 0.00 | 0.00 | 89 | 1013.9 |
| 20260508101133 | 41 | 97 | 1.7 | 3.5 | 0.00 | 0.00 | 0.00 | 89 | 1013.8 |
| 20260508100313 | 41 | 95 | 1.7 | 3.5 | 0.00 | 0.00 | 0.00 | 89 | 1013.8 |
| 20260508095453 | 41 | 104 | 1.7 | 4.3 | 0.00 | 0.00 | 0.00 | 89 | 1013.8 |
| 20260508094633 | 41 | 110 | 1.7 | 3.5 | 0.00 | 0.00 | 0.00 | 89 | 1014.0 |
| 20260508093813 | 41 | 108 | 1.7 | 3.5 | 0.00 | 0.00 | 0.00 | 89 | 1013.9 |
| 20260508092953 | 42 | 105 | 1.7 | 4.3 | 0.00 | 0.00 | 0.00 | 89 | 1013.8 |
| 20260508092133 | 41 | 94 | 1.7 | 3.5 | 0.00 | 0.00 | 0.00 | 89 | 1014.0 |
| 20260508091312 | 41 | 97 | 1.7 | 2.6 | 0.00 | 0.00 | 0.00 | 89 | 1014.1 |
| 20260508090452 | 41 | 103 | 1.7 | 2.6 | 0.00 | 0.00 | 0.00 | 89 | 1013.9 |
| 20260508085632 | 42 | 99 | 1.7 | 3.5 | 0.00 | 0.00 | 0.00 | 88 | 1014.2 |
| 20260508084812 | 42 | 100 | 1.7 | 3.5 | 0.00 | 0.00 | 0.00 | 88 | 1014.1 |
| 20260508083952 | 42 | 94 | 1.7 | 3.5 | 0.00 | 0.00 | 0.00 | 88 | 1014.3 |
| 20260508083132 | 42 | 111 | 1.7 | 3.5 | 0.00 | 0.00 | 0.00 | 87 | 1013.9 |
| 20260508082312 | 42 | 109 | 1.7 | 2.6 | 0.00 | 0.00 | 0.00 | 87 | 1014.1 |
| 20260508081451 | 43 | 97 | 1.7 | 2.6 | 0.00 | 0.00 | 0.00 | 86 | 1013.9 |
| 20260508080631 | 43 | 67 | 1.7 | 3.5 | 0.00 | 0.00 | 0.00 | 85 | 1014.0 |
| 20260508075811 | 43 | 105 | 1.7 | 3.5 | 0.00 | 0.00 | 0.00 | 85 | 1014.1 |
| 20260508074951 | 44 | 106 | 1.7 | 3.5 | 0.00 | 0.00 | 0.00 | 83 | 1014.1 |
| 20260508074130 | 44 | 96 | 1.7 | 3.5 | 0.00 | 0.00 | 0.00 | 82 | 1014.2 |
| 20260508073310 | 45 | 84 | 0.9 | 3.5 | 0.00 | 0.00 | 0.00 | 81 | 1014.3 |
| 20260508072450 | 46 | 108 | 1.7 | 2.6 | 0.00 | 0.00 | 0.00 | 79 | 1014.3 |
| 20260508071630 | 46 | 108 | 1.7 | 2.6 | 0.00 | 0.00 | 0.00 | 78 | 1014.4 |
| 20260508070810 | 47 | 105 | 0.9 | 2.6 | 0.00 | 0.00 | 0.00 | 77 | 1014.6 |
| 20260508065950 | 48 | 91 | 0.9 | 2.6 | 0.00 | 0.00 | 0.00 | 76 | 1014.4 |
| 20260508065130 | 49 | 116 | 1.7 | 6.1 | 0.00 | 0.00 | 0.00 | 77 | 1014.6 |
| 20260508064309 | 49 | 105 | 0.9 | 3.5 | 0.00 | 0.00 | 0.00 | 75 | 1014.7 |
| 20260508063449 | 49 | 88 | 0.9 | 3.5 | 0.00 | 0.00 | 0.00 | 72 | 1014.7 |
| 20260508062629 | 49 | 75 | 0.9 | 3.5 | 0.00 | 0.00 | 0.00 | 70 | 1014.6 |
| 20260508061808 | 50 | 83 | 0.9 | 3.5 | 0.00 | 0.00 | 0.00 | 70 | 1014.9 |
| 20260508060948 | 50 | 71 | 0.9 | 1.7 | 0.00 | 0.00 | 0.00 | 69 | 1014.9 |
| 20260508060128 | 50 | 91 | 0.9 | 2.6 | 0.00 | 0.00 | 0.00 | 67 | 1014.6 |
| 20260508055308 | 49 | 69 | 0.9 | 2.6 | 0.00 | 0.00 | 0.00 | 69 | 1014.6 |
| 20260508054448 | 49 | 97 | 0.9 | 3.5 | 0.00 | 0.00 | 0.00 | 69 | 1014.4 |
| 20260508053627 | 49 | 108 | 0.9 | 3.5 | 0.00 | 0.00 | 0.00 | 71 | 1014.3 |
| 20260508052807 | 48 | 107 | 0.9 | 3.5 | 0.00 | 0.00 | 0.00 | 71 | 1014.5 |
| 20260508051947 | 48 | 100 | 0.9 | 2.6 | 0.00 | 0.00 | 0.00 | 75 | 1014.4 |
| 20260508051127 | 47 | 104 | 0.9 | 2.6 | 0.00 | 0.00 | 0.00 | 76 | 1014.4 |
| 20260508050307 | 46 | 109 | 0.9 | 2.6 | 0.00 | 0.00 | 0.00 | 78 | 1014.4 |
| 20260508045446 | 47 | 104 | 0.9 | 1.7 | 0.00 | 0.00 | 0.00 | 80 | 1014.7 |
| 20260508044626 | 47 | 106 | 0.9 | 1.7 | 0.00 | 0.00 | 0.00 | 80 | 1014.7 |
| 20260508043806 | 46 | 103 | 0.9 | 1.7 | 0.00 | 0.00 | 0.00 | 81 | 1014.6 |
| 20260508042946 | 46 | 87 | 0.9 | 1.7 | 0.00 | 0.00 | 0.00 | 81 | 1014.4 |
| 20260508042126 | 46 | 103 | 1.7 | 3.5 | 0.00 | 0.00 | 0.00 | 81 | 1014.4 |
| 20260508041305 | 46 | 103 | 1.7 | 1.7 | 0.00 | 0.00 | 0.00 | 82 | 1014.7 |
| 20260508040445 | 45 | 89 | 0.9 | 1.7 | 0.00 | 0.00 | 0.00 | 82 | 1014.7 |
| 20260508035625 | 45 | 89 | 0.9 | 1.7 | 0.00 | 0.00 | 0.00 | 82 | 1014.5 |
| 20260508034805 | 45 | 98 | 1.7 | 1.7 | 0.00 | 0.00 | 0.00 | 81 | 1014.6 |
| 20260508033945 | 45 | 103 | 0.9 | 2.6 | 0.00 | 0.00 | 0.00 | 79 | 1014.7 |
| 20260508033124 | 46 | 93 | 0.9 | 1.7 | 0.00 | 0.00 | 0.00 | 80 | 1014.7 |
| 20260508032306 | 46 | 94 | 0.9 | 1.7 | 0.00 | 0.00 | 0.00 | 79 | 1014.6 |
| 20260508031444 | 45 | 95 | 0.9 | 1.7 | 0.00 | 0.00 | 0.00 | 79 | 1014.5 |
| 20260508030624 | 45 | 103 | 0.9 | 2.6 | 0.00 | 0.00 | 0.00 | 79 | 1014.6 |
| 20260508025804 | 45 | 100 | 0.9 | 1.7 | 0.00 | 0.00 | 0.00 | 79 | 1014.5 |
| 20260508024943 | 44 | 103 | 1.7 | 1.7 | 0.00 | 0.00 | 0.00 | 78 | 1014.7 |
| 20260508024123 | 45 | 100 | 1.7 | 2.6 | 0.00 | 0.00 | 0.00 | 78 | 1014.4 |
| 20260508023303 | 45 | 98 | 0.9 | 1.7 | 0.00 | 0.00 | 0.00 | 76 | 1014.6 |
| 20260508022443 | 45 | 97 | 0.9 | 1.7 | 0.00 | 0.00 | 0.00 | 76 | 1014.6 |
| 20260508021623 | 46 | 102 | 1.7 | 2.6 | 0.00 | 0.00 | 0.00 | 73 | 1014.3 |
| 20260508020803 | 46 | 91 | 0.9 | 2.6 | 0.00 | 0.00 | 0.00 | 73 | 1014.5 |
| 20260508015942 | 46 | 101 | 0.9 | 1.7 | 0.00 | 0.00 | 0.00 | 73 | 1014.7 |
| 20260508015122 | 46 | 104 | 0.9 | 1.7 | 0.00 | 0.00 | 0.00 | 71 | 1014.6 |
| 20260508014302 | 47 | 101 | 0.9 | 1.7 | 0.00 | 0.00 | 0.00 | 69 | 1014.6 |
| 20260508013441 | 47 | 103 | 0.9 | 1.7 | 0.00 | 0.00 | 0.00 | 68 | 1014.6 |
| 20260508012621 | 47 | 102 | 0.9 | 1.7 | 0.00 | 0.00 | 0.00 | 66 | 1014.3 |
| 20260508011801 | 48 | 108 | 0.9 | 1.7 | 0.00 | 0.00 | 0.00 | 65 | 1014.3 |
| 20260508010941 | 49 | 96 | 0.9 | 1.7 | 0.00 | 0.00 | 0.00 | 63 | 1014.3 |
| 20260508010121 | 49 | 107 | 0.9 | 1.7 | 0.00 | 0.00 | 0.00 | 60 | 1014.4 |
| 20260508005300 | 50 | 105 | 0.9 | 1.7 | 0.00 | 0.00 | 0.00 | 58 | 1014.3 |
| 20260508004440 | 51 | 117 | 0.9 | 1.7 | 0.00 | 0.00 | 0.00 | 58 | 1014.3 |
| 20260508003620 | 52 | 101 | 0.9 | 1.7 | 0.00 | 0.00 | 0.00 | 54 | 1014.3 |
| 20260508002800 | 53 | 110 | 0.9 | 1.7 | 0.00 | 0.00 | 0.00 | 54 | 1014.3 |
| 20260508001940 | 54 | 142 | 0.0 | 2.6 | 0.00 | 0.00 | 0.00 | 53 | 1014.3 |
| 20260508001120 | 55 | 99 | 0.0 | 2.6 | 0.00 | 0.00 | 0.00 | 49 | 1013.8 |
| 20260508000300 | 55 | 238 | 0.9 | 3.5 | 0.00 | 0.00 | 0.00 | 47 | 1013.8 |
| 20260507235440 | 56 | 250 | 1.7 | 3.5 | 0.00 | 0.00 | 0.00 | 45 | 1013.7 |
| 20260507234619 | 56 | 244 | 1.7 | 9.6 | 0.00 | 0.00 | 0.00 | 45 | 1013.9 |
| 20260507233759 | 58 | 292 | 0.9 | 6.1 | 0.00 | 0.00 | 0.00 | 44 | 1013.6 |
| 20260507232939 | 59 | 16 | 1.7 | 7.8 | 0.00 | 0.00 | 0.00 | 42 | 1013.7 |
| 20260507232119 | 59 | 261 | 1.7 | 6.1 | 0.00 | 0.00 | 0.00 | 41 | 1013.8 |
| 20260507231259 | 58 | 282 | 1.7 | 8.7 | 0.00 | 0.00 | 0.00 | 41 | 1013.6 |
| 20260507230438 | 58 | 354 | 0.9 | 6.1 | 0.00 | 0.00 | 0.00 | 44 | 1013.8 |
| 20260507225618 | 58 | 257 | 1.7 | 7.0 | 0.00 | 0.00 | 0.00 | 45 | 1013.7 |
| 20260507224758 | 57 | 215 | 1.7 | 8.7 | 0.00 | 0.00 | 0.00 | 42 | 1013.9 |
| 20260507223938 | 58 | 244 | 1.7 | 6.1 | 0.00 | 0.00 | 0.00 | 41 | 1013.8 |
| 20260507223118 | 59 | 249 | 1.7 | 7.0 | 0.00 | 0.00 | 0.00 | 42 | 1014.1 |
| 20260507222257 | 59 | 257 | 1.7 | 8.7 | 0.00 | 0.00 | 0.00 | 41 | 1013.9 |
| 20260507221437 | 57 | 254 | 2.6 | 11.3 | 0.00 | 0.00 | 0.00 | 44 | 1014.2 |
| 20260507220617 | 57 | 260 | 3.5 | 10.4 | 0.00 | 0.00 | 0.00 | 42 | 1014.2 |
| 20260507215757 | 59 | 271 | 2.6 | 13.9 | 0.00 | 0.00 | 0.00 | 41 | 1013.8 |
| 20260507214936 | 60 | 303 | 2.6 | 14.8 | 0.00 | 0.00 | 0.00 | 39 | 1013.9 |
| 20260507214116 | 60 | 309 | 3.5 | 14.8 | 0.00 | 0.00 | 0.00 | 38 | 1013.7 |
| 20260507213256 | 58 | 249 | 2.6 | 7.8 | 0.00 | 0.00 | 0.00 | 41 | 1013.9 |
| 20260507212436 | 58 | 239 | 1.7 | 6.1 | 0.00 | 0.00 | 0.00 | 42 | 1013.5 |
| 20260507211615 | 58 | 302 | 2.6 | 10.4 | 0.00 | 0.00 | 0.00 | 43 | 1013.9 |
| 20260507210755 | 60 | 297 | 2.6 | 10.4 | 0.00 | 0.00 | 0.00 | 41 | 1013.7 |
| 20260507205935 | 59 | 354 | 2.6 | 13.0 | 0.00 | 0.00 | 0.00 | 45 | 1013.8 |
| 20260507205115 | 59 | 348 | 2.6 | 12.2 | 0.00 | 0.00 | 0.00 | 41 | 1013.7 |
| 20260507204255 | 58 | 17 | 2.6 | 13.0 | 0.00 | 0.00 | 0.00 | 45 | 1013.8 |
| 20260507203434 | 60 | 16 | 2.6 | 13.0 | 0.00 | 0.00 | 0.00 | 44 | 1013.5 |
| 20260507202614 | 58 | 306 | 3.5 | 12.2 | 0.00 | 0.00 | 0.00 | 43 | 1013.6 |
| 20260507201754 | 58 | 257 | 4.3 | 13.0 | 0.00 | 0.00 | 0.00 | 45 | 1013.5 |
| 20260507200934 | 59 | 256 | 3.5 | 9.6 | 0.00 | 0.00 | 0.00 | 45 | 1013.8 |
| 20260507200113 | 58 | 286 | 4.3 | 16.5 | 0.00 | 0.00 | 0.00 | 42 | 1013.9 |
| 20260507195253 | 59 | 264 | 3.5 | 13.0 | 0.00 | 0.00 | 0.00 | 43 | 1013.6 |
| 20260507194433 | 58 | 255 | 3.5 | 11.3 | 0.00 | 0.00 | 0.00 | 46 | 1013.7 |
| 20260507193613 | 59 | 262 | 4.3 | 11.3 | 0.00 | 0.00 | 0.00 | 44 | 1013.8 |
| 20260507192753 | 59 | 271 | 3.5 | 7.8 | 0.00 | 0.00 | 0.00 | 41 | 1013.9 |
| 20260507191932 | 60 | 293 | 2.6 | 8.7 | 0.00 | 0.00 | 0.00 | 43 | 1014.0 |
| 20260507191112 | 59 | 256 | 3.5 | 10.4 | 0.00 | 0.00 | 0.00 | 44 | 1013.9 |
| 20260507190252 | 59 | 253 | 3.5 | 12.2 | 0.00 | 0.00 | 0.00 | 45 | 1014.0 |
| 20260507185432 | 60 | 262 | 3.5 | 11.3 | 0.00 | 0.00 | 0.00 | 44 | 1014.0 |
| 20260507184612 | 60 | 285 | 3.5 | 9.6 | 0.00 | 0.00 | 0.00 | 44 | 1014.2 |
| 20260507183751 | 59 | 263 | 2.6 | 9.6 | 0.00 | 0.00 | 0.00 | 44 | 1013.9 |
| 20260507182931 | 59 | 262 | 4.3 | 12.2 | 0.00 | 0.00 | 0.00 | 51 | 1014.2 |
| 20260507182111 | 58 | 258 | 5.2 | 9.6 | 0.00 | 0.00 | 0.00 | 49 | 1014.5 |
| 20260507181251 | 58 | 257 | 3.5 | 9.6 | 0.00 | 0.00 | 0.00 | 49 | 1014.2 |
| 20260507180430 | 58 | 268 | 3.5 | 13.9 | 0.00 | 0.00 | 0.00 | 49 | 1014.3 |
| 20260507175610 | 59 | 253 | 2.6 | 11.3 | 0.00 | 0.00 | 0.00 | 50 | 1014.2 |
| 20260507174750 | 58 | 264 | 3.5 | 12.2 | 0.00 | 0.00 | 0.00 | 49 | 1014.1 |
| 20260507173930 | 58 | 260 | 3.5 | 10.4 | 0.00 | 0.00 | 0.00 | 52 | 1014.3 |
| 20260507173109 | 57 | 256 | 3.5 | 10.4 | 0.00 | 0.00 | 0.00 | 49 | 1014.3 |
| 20260507172249 | 57 | 260 | 3.5 | 10.4 | 0.00 | 0.00 | 0.00 | 50 | 1014.7 |
| 20260507171429 | 57 | 259 | 3.5 | 7.0 | 0.00 | 0.00 | 0.00 | 49 | 1014.6 |
| 20260507170609 | 57 | 261 | 3.5 | 9.6 | 0.00 | 0.00 | 0.00 | 51 | 1014.7 |
| 20260507165749 | 58 | 258 | 3.5 | 13.0 | 0.00 | 0.00 | 0.00 | 47 | 1014.9 |
| 20260507164928 | 56 | 262 | 3.5 | 13.9 | 0.00 | 0.00 | 0.00 | 50 | 1014.9 |
| 20260507164108 | 55 | 260 | 4.3 | 12.2 | 0.00 | 0.00 | 0.00 | 50 | 1015.1 |
| 20260507163248 | 56 | 265 | 3.5 | 15.6 | 0.00 | 0.00 | 0.00 | 52 | 1015.0 |
| 20260507162428 | 56 | 254 | 3.5 | 14.8 | 0.00 | 0.00 | 0.00 | 44 | 1014.9 |
| 20260507161608 | 56 | 262 | 3.5 | 9.6 | 0.00 | 0.00 | 0.00 | 46 | 1015.0 |
| 20260507160748 | 55 | 255 | 3.5 | 9.6 | 0.00 | 0.00 | 0.00 | 50 | 1014.8 |
| 20260507155928 | 55 | 248 | 2.6 | 9.6 | 0.00 | 0.00 | 0.00 | 47 | 1014.7 |
| 20260507155107 | 55 | 258 | 3.5 | 10.4 | 0.00 | 0.00 | 0.00 | 49 | 1014.9 |